Tracking 30105 objects as of 24-Jan-2025
HD Live streaming from Space Station
objects crossing your sky now

STARLINK-1134

Track STARLINK-1134 now!
10-day predictions
STARLINK-1134 is classified as:


NORAD ID: 45048
Int'l Code: 2020-006E
Perigee: 545.4 km
Apogee: 549.4 km
Inclination: 53.1 °
Period: 95.4 minutes
Semi major axis: 6918 km
RCS: Unknown
Launch date: January 29, 2020
Source: United States (US)
Launch site: AIR FORCE EASTERN TEST RANGE (AFETR)
Your satellite tracking list
Your tracking list is empty




NASA's NSSDC Master Catalog

Two Line Element Set (TLE):
1 45048U 20006E   25023.85652209  .00030117  00000-0  19114-2 0  9998
2 45048  53.0548 326.0506 0002889  95.5988 264.5331 15.08659873274695
Source of the keplerian elements: AFSPC